Jakobshavn, Greenland

10:12 AM WGT on February 26, 2017 (GMT -0300)
Ilulissat

Weather History for BGJN - April, 2014

Change the Weather History Date:

Friday, April 11, 2014

  Actual Average Record
Temperature  
Mean Temperature 28 °F -  
Max Temperature 34 °F 26 °F 52 °F (2016)
Min Temperature 23 °F 18 °F -5 °F (2011)
Degree Days  
Heating Degree Days 36    
Moisture  
Dew Point 17 °F    
Average Humidity 57    
Maximum Humidity 86    
Minimum Humidity 26    
Precipitation  
Precipitation 0.00 in - - ()
Sea Level Pressure  
Sea Level Pressure 29.20 in    
Wind  
Wind Speed 10 mph ()    
Max Wind Speed 18 mph    
Max Gust Speed -    
Visibility 7.8 miles    
Events Snow    
Averages and records for this station are not official NWS values.
T = Trace of Precipitation, MM = Missing Value Source: Averaged Metar Reports

Daily Weather History Graph

Daily Weather History Graph

Search for Another Location

Airport or City:

Trip Planner

Search our weather history database for the weather conditions in past years. The results will help you decide how hot, cold, wet, or windy it might be!

Date:

Astronomy

Apr. 11, 2014 Rise Set
Actual Time 5:44 AM WGST 9:09 PM WGST
Civil Twilight 4:33 AM WGST 10:21 PM WGST
Nautical Twilight 2:15 AM WGST 12:57 AM WGST
Astronomical Twilight Sun does not rise Sun does not rise
Moon 4:02 PM WGST (4/11) 5:26 AM WGST (4/11)
Length of Visible Light 17h 48m
Length of Day
15h 25m
Waxing Gibbous, 86% of the Moon is Illuminated
Apr 11
Waxing Gibbous
Apr 15
Full
Apr 22
Last Quarter
Apr 29
New
May 7
First Quarter

Hourly Weather History & Observations

Time (WGST) Temp. Windchill Dew Point Humidity Pressure Visibility Wind Dir Wind Speed Gust Speed Precip Events Conditions
12:00 AM 34 °F - 17 °F 36% 29.05 in 31 mi SE 11.5 mph - -   Overcast
12:20 AM 33.8 °F 25.3 °F 19.4 °F 56% 29.03 in 6.2 mi SE 11.5 mph - N/A   Mostly Cloudy
12:50 AM 33.8 °F 24.8 °F 17.6 °F 52% 29.03 in 6.2 mi SE 12.7 mph - N/A   Mostly Cloudy
1:00 AM 33 °F - 15 °F 33% 29.06 in 31 mi SE 11.5 mph - -   Scattered Clouds
1:20 AM 33.8 °F 25.3 °F 17.6 °F 52% 29.03 in 6.2 mi SE 11.5 mph - N/A   Overcast
1:50 AM 33.8 °F 24.3 °F 15.8 °F 48% 29.03 in 6.2 mi ESE 13.8 mph - N/A   Mostly Cloudy
2:00 AM 34 °F - 13 °F 28% 29.07 in 31 mi ESE 12.7 mph - -   Partly Cloudy
2:20 AM 33.8 °F 25.3 °F 15.8 °F 48% 29.06 in 6.2 mi ESE 11.5 mph - N/A   Mostly Cloudy
2:50 AM 33.8 °F 26.4 °F 14.0 °F 44% 29.06 in 6.2 mi ESE 9.2 mph - N/A   Mostly Cloudy
3:00 AM 32 °F - 13 °F 30% 29.08 in 31 mi East 10.4 mph - -   Overcast
3:20 AM 33.8 °F 23.9 °F 12.2 °F 41% 29.06 in 6.2 mi East 15.0 mph - N/A   Overcast
3:50 AM 32.0 °F 21.2 °F 12.2 °F 44% 29.06 in 6.2 mi East 16.1 mph - N/A   Mostly Cloudy
4:00 AM 32 °F - 10 °F 26% 29.09 in 31 mi East 13.8 mph - -   Partly Cloudy
4:20 AM 30.2 °F 20.2 °F 12.2 °F 47% 29.09 in 6.2 mi East 12.7 mph - N/A   Mostly Cloudy
4:50 AM 33.8 °F 24.3 °F 12.2 °F 41% 29.09 in 6.2 mi ESE 13.8 mph - N/A   Mostly Cloudy
5:00 AM 32 °F - 10 °F 26% 29.10 in 31 mi ESE 15.0 mph - -   Scattered Clouds
5:20 AM 32.0 °F 22.5 °F 12.2 °F 44% 29.09 in 6.2 mi ESE 12.7 mph - N/A   Mostly Cloudy
5:50 AM 30.2 °F 22.6 °F 12.2 °F 47% 29.09 in 6.2 mi East 8.1 mph - N/A   Mostly Cloudy
6:00 AM 30 °F - 11 °F 30% 29.10 in 31 mi ESE 9.2 mph - -   Mostly Cloudy
6:50 AM 33.8 °F 24.3 °F 10.4 °F 38% 29.09 in 6.2 mi ESE 13.8 mph - N/A   Mostly Cloudy
7:00 AM 31 °F - 9 °F 26% 29.12 in 31 mi East 16.1 mph - -   Partly Cloudy
7:50 AM 30.2 °F 18.1 °F 12.2 °F 47% 29.12 in 6.2 mi East 18.4 mph - N/A   Mostly Cloudy
8:00 AM 31 °F - 9 °F 26% 29.13 in 31 mi East 17.3 mph - -   Scattered Clouds
8:50 AM 32.0 °F 21.2 °F 12.2 °F 44% 29.12 in 6.2 mi East 16.1 mph - N/A   Mostly Cloudy
9:00 AM 32 °F - 10 °F 26% 29.16 in 19 mi East 15.0 mph - -  
10:00 AM 32 °F - 10 °F 26% 29.17 in 28 mi ESE 16.1 mph - -   Scattered Clouds
10:20 AM 32.0 °F 21.2 °F 14.0 °F 48% 29.15 in 6.2 mi East 16.1 mph - N/A   Mostly Cloudy
10:50 AM 32.0 °F 22.1 °F 14.0 °F 48% 29.18 in 6.2 mi East 13.8 mph - N/A   Mostly Cloudy
11:00 AM 32 °F - 13 °F 30% 29.19 in 25 mi East 12.7 mph - -   Mostly Cloudy
11:50 AM 33.8 °F 25.8 °F 15.8 °F 48% 29.18 in 6.2 mi SE 10.4 mph - N/A   Mostly Cloudy
12:00 PM 33 °F - 12 °F 28% 29.21 in 25 mi ESE 10.4 mph - -   Mostly Cloudy
12:50 PM 30.2 °F 23.4 °F 17.6 °F 60% 29.21 in 6.2 mi SW 6.9 mph - N/A   Mostly Cloudy
1:00 PM 30 °F - 21 °F 58% 29.23 in 19 mi SSW 10.4 mph - -   Scattered Clouds
1:50 PM 30.2 °F 24.3 °F 24.8 °F 80% 29.21 in 6.2 mi SSW 5.8 mph - N/A   Mostly Cloudy
2:00 PM 30 °F - 23 °F 67% 29.24 in 14 mi South 6.9 mph - -   Mostly Cloudy
2:50 PM 30.2 °F 26.7 °F 23.0 °F 75% 29.24 in 6.2 mi SSW 3.5 mph - N/A   Mostly Cloudy
3:00 PM 30 °F - 22 °F 62% 29.24 in 16 mi SSW 3.5 mph - -   Scattered Clouds
3:50 PM 30.2 °F 25.4 °F 24.8 °F 80% 29.24 in 6.2 mi SSW 4.6 mph - N/A   Mostly Cloudy
4:00 PM 30 °F - 23 °F 67% 29.26 in 16 mi South 4.6 mph - -   Scattered Clouds
4:50 PM 28.4 °F 21.2 °F 24.8 °F 86% 29.27 in 6.2 mi SSW 6.9 mph - N/A   Mostly Cloudy
5:00 PM 29 °F - 23 °F 71% 29.28 in 17 mi SSW 6.9 mph - -   Mostly Cloudy
5:50 PM 28.4 °F 24.6 °F 23.0 °F 80% 29.27 in 6.2 mi SSE 3.5 mph - N/A   Mostly Cloudy
6:00 PM 29 °F - 21 °F 62% 29.29 in 16 mi South 3.5 mph - -  
6:20 PM 28.4 °F 24.6 °F 21.2 °F 74% 29.27 in 6.2 mi SSW 3.5 mph - N/A   Partly Cloudy
6:50 PM 24.8 °F - 19.4 °F 80% 29.30 in 6.2 mi Calm Calm - N/A   Partly Cloudy
7:00 PM 24 °F - 19 °F 75% 29.32 in 19 mi Calm Calm - -   Scattered Clouds
7:20 PM 23.0 °F 15.8 °F 19.4 °F 86% 29.30 in 6.2 mi SSE 5.8 mph - N/A   Mostly Cloudy
7:50 PM 24.8 °F - 19.4 °F 80% 29.33 in 6.2 mi SSE 1.2 mph - N/A   Mostly Cloudy
8:00 PM 24 °F - 19 °F 75% 29.34 in 25 mi SE 3.5 mph - -   Mostly Cloudy
8:20 PM 24.8 °F 19.1 °F 19.4 °F 80% 29.33 in 6.2 mi SSE 4.6 mph - N/A   Mostly Cloudy
8:50 PM 24.8 °F 19.1 °F 19.4 °F 80% 29.36 in 6.2 mi South 4.6 mph - N/A Snow Light Snow
9:00 PM 27 °F - 20 °F 66% 29.37 in 4 mi SSW 3.5 mph - -   Unknown Precipitation
9:20 PM 26.6 °F 17.5 °F 21.2 °F 80% 29.36 in 6.2 mi WSW 9.2 mph - N/A   Light Freezing Drizzle
9:50 PM 26.6 °F 18.2 °F 21.2 °F 80% 29.36 in 6.2 mi WSW 8.1 mph - N/A   Overcast
10:00 PM 26 °F - 21 °F 76% 29.39 in 3 mi WSW 10.4 mph - -   Unknown Precipitation
10:20 PM 26.6 °F 18.2 °F 21.2 °F 80% 29.39 in 5.0 mi WSW 8.1 mph - N/A Snow Light Snow Showers
10:50 PM 24.8 °F 15.3 °F 21.2 °F 86% 29.39 in 4.3 mi WSW 9.2 mph - N/A Snow Light Snow Showers
11:00 PM 25 °F - 22 °F 81% 29.42 in 4 mi WSW 9.2 mph - - Snow Light Snow
11:20 PM 24.8 °F 16.9 °F 21.2 °F 86% 29.42 in 5.6 mi SW 6.9 mph - N/A   Light Ice Pellets
11:50 PM 24.8 °F 19.1 °F 19.4 °F 80% 29.42 in 5.0 mi SSW 4.6 mph - N/A Snow Light Snow